Date,TemperatureHighF,TemperatureAvgF,TemperatureLowF,DewpointHighF,DewpointAvgF,DewpointLowF,HumidityHigh,HumidityAvg,HumidityLow,PressureMaxIn,PressureMinIn,WindSpeedMaxMPH,WindSpeedAvgMPH,GustSpeedMaxMPH,PrecipitationSumIn
2013-1-1,26,16,4,24,7,-2,91,68,48,0.00,40.00,9,3,17,0.00
2013-1-2,16,2,-14,4,-6,-21,79,71,53,0.00,40.00,3,1,7,0.00
2013-1-3,11,-6,-19,0,-14,-27,76,66,47,0.00,40.00,3,1,6,0.00
2013-1-4,31,19,4,26,14,-4,92,80,68,0.00,40.00,3,2,10,0.00
2013-1-5,29,20,0,25,12,-5,91,72,50,0.00,40.00,5,3,23,0.00
2013-1-6,28,16,1,23,12,-4,91,81,70,0.00,40.00,2,1,5,0.00
2013-1-7,26,17,-3,24,10,-9,92,76,51,0.00,40.00,3,1,8,0.00
2013-1-8,39,12,-6,22,5,-12,88,74,47,0.00,40.00,3,2,7,0.00
2013-1-9,36,20,6,28,15,2,91,84,73,0.00,40.00,5,1,12,0.00
2013-1-10,39,34,24,33,25,18,92,69,55,0.00,40.00,9,4,22,0.17
2013-1-11,32,24,13,28,20,9,92,82,58,0.00,40.00,2,1,5,0.01
2013-1-12,42,34,30,37,33,28,100,96,83,0.00,40.00,2,1,4,0.31
2013-1-13,40,35,33,37,34,33,100,98,86,0.00,40.00,2,1,7,0.33
2013-1-14,45,37,33,42,32,20,100,82,56,0.00,40.00,4,2,13,0.22
2013-1-15,33,29,22,22,18,15,79,63,49,0.00,40.00,5,2,10,0.01
2013-1-16,29,26,23,25,21,17,91,84,77,0.00,40.00,2,1,4,0.00
2013-1-17,30,21,6,27,9,-17,94,65,27,0.00,40.00,7,2,18,0.00
2013-1-18,15,1,-14,-8,-13,-21,72,55,31,0.00,40.00,5,2,16,0.00
2013-1-19,26,15,-5,22,10,-12,90,81,70,0.00,40.00,2,1,5,0.00
2013-1-20,38,25,13,35,17,0,90,72,44,0.00,40.00,11,4,27,0.12
2013-1-21,19,9,-6,5,-3,-12,80,59,34,0.00,40.00,5,2,17,0.04
2013-1-22,16,8,-1,7,-2,-19,81,64,39,0.00,40.00,7,3,15,0.00
2013-1-23,0,-9,-22,-16,-24,-31,63,48,32,0.00,40.00,6,1,14,0.00
2013-1-24,8,-9,-26,-13,-23,-35,63,51,27,0.00,40.00,5,2,16,0.00
2013-1-25,12,3,-5,-5,-10,-15,65,55,38,0.00,40.00,3,2,10,0.00
2013-1-26,16,5,-6,-5,-8,-13,75,57,34,0.00,40.00,3,1,12,0.00
2013-1-27,20,3,-9,1,-9,-16,75,59,28,0.00,40.00,5,2,11,0.00
2013-1-28,14,2,-13,10,-5,-20,84,71,51,0.00,40.00,3,1,4,0.00
2013-1-29,30,17,-1,25,12,-6,91,81,67,0.00,40.00,2,1,6,0.00
2013-1-30,40,34,27,37,33,25,100,96,89,0.00,40.00,2,1,5,0.67
2013-1-31,43,32,23,43,22,3,100,68,41,0.00,40.00,11,8,26,1.40
2013-2-1,23,16,8,9,2,-3,68,54,41,0.00,40.00,9,4,22,0.01
2013-2-2,21,13,1,11,2,-6,85,63,44,0.00,40.00,5,2,12,0.00
2013-2-3,29,14,2,12,5,-3,85,69,39,0.00,40.00,3,1,7,0.00
2013-2-4,21,13,6,9,2,-11,83,62,37,0.00,40.00,10,3,24,0.00
2013-2-5,19,6,-10,0,-9,-16,73,52,25,0.00,40.00,4,2,11,0.00
2013-2-6,29,17,7,23,5,-10,81,61,31,0.00,40.00,5,2,16,0.00
2013-2-7,16,5,-6,-8,-12,-17,73,48,23,0.00,40.00,4,2,9,0.00
2013-2-8,22,15,9,15,6,-9,84,69,41,0.00,40.00,3,2,11,0.00
2013-2-9,15,10,1,10,4,-5,82,73,62,0.00,40.00,4,3,12,0.00
2013-2-10,26,6,-17,9,-5,-25,80,63,31,0.00,40.00,3,1,7,0.00
2013-2-11,28,12,-4,28,7,-10,99,81,74,0.00,40.00,2,1,6,0.00
2013-2-12,36,32,28,32,28,25,100,87,73,0.00,40.00,5,2,17,0.00
2013-2-13,35,31,26,27,23,21,87,75,56,0.00,40.00,5,2,11,0.09
2013-2-14,35,28,22,24,21,18,89,76,50,0.00,40.00,3,1,10,0.05
2013-2-15,45,30,20,30,22,16,87,74,45,0.00,40.00,6,2,15,0.13
2013-2-16,34,26,18,25,16,4,90,67,44,0.00,40.00,2,1,6,0.06
2013-2-17,18,14,10,5,1,-2,67,57,47,0.00,40.00,5,3,13,0.01
2013-2-18,26,10,-1,2,-5,-11,65,51,20,0.00,40.00,7,4,17,0.00
2013-2-19,42,22,-5,27,6,-12,80,53,20,0.00,40.00,3,2,10,0.08
2013-2-20,32,26,22,31,19,12,99,75,58,0.00,40.00,7,3,18,0.02
2013-2-21,23,17,10,14,8,0,79,67,57,0.00,40.00,6,2,17,0.00
2013-2-22,40,25,8,23,17,4,84,72,47,0.00,40.00,3,1,6,0.15
2013-2-23,36,29,21,31,24,17,100,80,60,0.00,40.00,3,1,7,0.05
2013-2-24,38,32,30,32,30,29,100,93,80,0.00,40.00,1,1,5,0.12
2013-2-25,41,33,29,31,30,28,100,89,66,0.00,40.00,2,1,5,0.15
2013-2-26,43,32,23,30,27,21,94,83,52,0.00,40.00,2,1,5,0.15
2013-2-27,40,33,28,28,25,22,89,74,60,0.00,40.00,6,3,16,0.09
2013-2-28,49,36,30,33,29,25,100,76,51,0.00,40.00,2,1,7,0.02
2013-3-1,35,32,29,32,28,25,100,88,74,0.00,40.00,2,1,6,0.07
2013-3-2,35,30,26,28,25,23,92,83,64,0.00,40.00,3,1,9,0.07
2013-3-3,36,28,24,26,23,20,91,80,65,0.00,40.00,2,1,6,0.10
2013-3-4,33,25,22,23,19,17,89,78,66,0.00,40.00,3,2,6,0.07
2013-3-5,44,31,22,30,24,18,87,77,57,0.00,40.00,2,1,7,0.03
2013-3-6,41,34,30,31,25,19,90,69,49,0.00,40.00,4,3,14,0.02
2013-3-7,40,32,28,26,21,19,71,63,52,0.00,40.00,3,2,11,0.00
2013-3-8,44,34,26,24,22,20,81,62,44,0.00,40.00,3,2,9,0.00
2013-3-9,58,33,13,26,18,10,87,63,18,0.00,40.00,4,2,8,0.00
2013-3-10,56,36,19,27,21,16,88,60,23,0.00,40.00,4,2,9,0.00
2013-3-11,54,40,32,33,28,25,83,65,38,0.00,40.00,3,2,7,0.00
2013-3-12,45,39,33,44,36,24,100,90,60,0.00,40.00,2,1,7,0.96
2013-3-13,43,36,28,41,32,25,100,87,56,0.00,40.00,2,1,10,0.52
2013-3-14,32,25,14,28,16,1,100,71,46,0.00,40.00,6,3,12,0.01
2013-3-15,36,21,10,23,9,2,90,62,28,0.00,40.00,4,2,12,0.01
2013-3-16,29,22,13,19,11,5,88,64,40,0.00,40.00,5,2,10,0.04
2013-3-17,25,15,2,11,1,-5,82,58,28,0.00,40.00,7,3,19,0.01
2013-3-18,37,17,-3,10,-2,-8,77,49,17,0.00,40.00,4,2,9,0.00
2013-3-19,32,26,21,24,19,10,89,76,55,0.00,40.00,4,2,15,0.00
2013-3-20,34,26,19,25,19,16,89,77,51,0.00,40.00,7,3,16,0.06
2013-3-21,40,25,5,20,12,0,85,62,30,0.00,40.00,4,2,9,0.36
2013-3-22,35,24,9,21,14,5,83,66,44,0.00,40.00,6,2,15,0.01
2013-3-23,34,29,22,24,20,14,85,69,57,0.00,40.00,7,4,21,0.00
2013-3-24,43,33,25,24,22,21,84,66,45,0.00,40.00,4,2,11,0.00
2013-3-25,51,31,15,29,21,12,89,69,36,0.00,40.00,4,2,9,0.00
2013-3-26,52,35,27,26,18,-100,77,56,32,0.00,40.00,3,2,10,0.00
2013-3-27,45,31,20,32,24,17,90,76,50,0.00,40.00,3,1,9,0.01
2013-3-28,50,43,32,33,30,26,83,62,51,0.00,40.00,2,2,8,0.08
2013-3-29,48,39,32,40,31,25,100,75,46,0.00,40.00,6,2,14,0.02
2013-3-30,55,38,26,33,21,10,92,58,19,0.00,40.00,4,2,11,0.02
2013-3-31,55,39,18,25,17,-100,88,50,23,0.00,40.00,5,2,11,0.00
2013-4-1,46,37,29,39,31,15,100,81,43,0.00,40.00,8,2,19,0.25
2013-4-2,32,25,18,21,12,6,87,58,33,0.00,40.00,8,5,24,0.05
2013-4-3,41,30,23,21,12,7,87,49,25,0.00,40.00,8,5,25,0.01
2013-4-4,51,36,25,19,11,6,68,38,17,0.00,40.00,7,4,16,0.01
2013-4-5,50,36,26,26,22,17,81,58,33,0.00,40.00,5,3,17,0.00
2013-4-6,39,29,20,21,9,1,77,46,20,0.00,40.00,5,3,16,0.01
2013-4-7,57,36,22,27,18,10,71,50,24,0.00,40.00,5,2,14,0.01
2013-4-8,54,42,31,34,30,26,80,63,40,0.00,40.00,5,2,12,0.00
2013-4-9,46,39,31,42,36,26,100,89,70,0.00,40.00,7,2,15,0.36
2013-4-10,49,40,35,42,38,33,100,92,75,0.00,40.00,2,1,5,0.14
2013-4-11,44,36,30,37,23,13,100,64,30,0.00,40.00,3,2,7,0.02
2013-4-12,32,31,29,29,25,18,94,77,56,0.00,40.00,4,2,15,0.18
2013-4-13,47,36,30,37,33,29,100,90,66,0.00,40.00,3,1,6,0.34
2013-4-14,52,38,30,41,33,27,100,85,46,0.00,40.00,6,2,14,0.14
2013-4-15,61,40,24,36,27,22,96,67,26,0.00,40.00,4,2,11,0.02
2013-4-16,58,44,29,51,38,26,100,81,50,0.00,40.00,6,2,16,0.24
2013-4-17,58,46,29,50,32,23,94,63,32,0.00,40.00,4,3,14,0.12
2013-4-18,57,40,26,43,29,23,89,68,44,0.00,40.00,4,2,12,0.02
2013-4-19,75,64,49,57,50,34,74,60,44,0.00,40.00,7,4,19,0.01
2013-4-20,66,45,36,57,33,18,99,66,35,0.00,40.00,8,4,23,0.51
2013-4-21,49,37,27,20,17,11,70,46,25,0.00,40.00,6,3,17,0.05
2013-4-22,57,38,19,27,16,9,88,50,16,0.00,40.00,5,2,12,0.00
2013-4-23,53,39,21,37,26,16,87,63,34,0.00,40.00,4,2,10,0.00
2013-4-24,77,53,30,46,36,27,95,62,17,0.00,40.00,6,2,14,0.00
2013-4-25,65,50,30,49,31,19,80,51,28,0.00,40.00,10,4,19,0.02
2013-4-26,57,41,23,33,26,20,90,62,28,0.00,40.00,4,2,11,0.00
2013-4-27,64,45,26,39,29,22,93,61,25,0.00,40.00,3,1,9,0.00
2013-4-28,73,49,26,37,28,-100,90,56,19,0.00,40.00,4,2,11,0.00
2013-4-29,76,51,32,40,34,29,90,59,20,0.00,40.00,5,2,14,0.00
2013-4-30,76,60,37,47,42,34,90,57,27,0.00,40.00,3,2,10,0.00
2013-5-1,82,55,32,41,36,30,93,59,19,0.00,40.00,4,2,9,0.00
2013-5-2,83,59,34,43,38,31,91,52,23,0.00,40.00,3,2,9,0.00
2013-5-3,75,54,33,40,36,29,88,57,25,0.00,40.00,4,2,10,0.00
2013-5-4,80,57,32,47,34,26,94,53,16,0.00,40.00,3,2,13,0.00
2013-5-5,80,54,31,40,34,29,92,55,16,0.00,40.00,4,2,10,0.00
2013-5-6,82,58,33,40,32,21,91,49,12,0.00,40.00,4,2,13,0.00
2013-5-7,85,57,33,44,34,25,89,54,11,0.00,40.00,4,2,9,0.00
2013-5-8,83,61,38,59,45,36,99,62,22,0.00,40.00,5,2,14,0.05
2013-5-9,74,60,53,63,58,53,100,93,55,0.00,40.00,3,1,7,0.51
2013-5-10,75,60,55,61,52,-100,100,87,51,0.00,40.00,4,1,8,0.18
2013-5-11,67,59,54,62,58,54,100,96,75,0.00,40.00,3,1,8,0.29
2013-5-12,64,53,36,53,44,-100,100,76,46,0.00,40.00,6,2,14,0.11
2013-5-13,51,42,34,31,28,24,90,59,42,0.00,40.00,8,5,18,0.01
2013-5-14,58,42,28,38,28,22,97,64,31,0.00,40.00,4,2,14,0.00
2013-5-15,66,43,25,49,31,23,100,71,21,0.00,40.00,5,2,14,0.16
2013-5-16,72,50,46,53,28,-100,100,68,22,0.00,40.00,8,3,22,0.13
2013-5-17,63,51,45,44,32,-100,90,64,38,0.00,40.00,4,2,12,0.00
2013-5-18,71,55,36,47,40,33,100,63,26,0.00,40.00,3,1,6,0.00
2013-5-19,73,54,34,54,42,32,100,71,26,0.00,40.00,4,2,12,0.15
2013-5-20,73,58,53,61,55,53,100,94,63,0.00,40.00,4,1,7,0.48
2013-5-21,66,56,49,62,54,49,100,95,82,0.00,40.00,4,1,17,0.94
2013-5-22,76,58,50,63,55,50,100,91,63,0.00,40.00,3,1,7,1.44
2013-5-23,74,65,56,69,61,56,100,87,64,0.00,40.00,4,2,11,0.57
2013-5-24,62,54,45,61,52,42,100,92,80,0.00,40.00,3,2,9,0.45
2013-5-25,45,42,35,44,40,35,100,95,86,0.00,40.00,4,2,12,1.18
2013-5-26,52,42,35,42,38,34,99,86,66,0.00,40.00,6,2,20,0.60
2013-5-27,66,48,31,43,35,30,99,68,30,0.00,40.00,6,2,20,0.01
2013-5-28,76,54,32,49,38,31,99,64,24,0.00,40.00,4,2,10,0.00
2013-5-29,61,54,46,59,52,44,100,93,87,0.00,40.00,2,1,4,0.15
2013-5-30,85,70,57,64,60,56,100,76,42,0.00,40.00,7,2,15,0.03
2013-5-31,91,72,53,66,60,53,100,72,37,0.00,40.00,6,2,14,0.00
2013-6-1,91,74,56,69,61,54,100,70,30,0.00,40.00,8,2,19,0.00
2013-6-2,88,72,63,71,38,-100,100,57,1,0.00,40.00,6,2,30,0.36
2013-6-3,77,65,49,65,24,-43,100,43,1,0.00,40.00,7,3,15,0.11
2013-6-4,65,51,41,47,42,39,100,73,41,0.00,40.00,6,3,17,0.00
2013-6-5,74,53,34,50,39,20,100,66,14,0.00,40.00,4,2,12,0.00
2013-6-6,75,54,41,51,45,39,95,76,38,0.00,40.00,2,1,7,0.02
2013-6-7,57,52,48,54,51,47,100,95,86,0.00,40.00,1,1,7,0.69
2013-6-8,67,57,50,59,55,50,100,91,70,0.00,40.00,4,2,9,0.86
2013-6-9,74,62,53,59,55,52,100,81,50,0.00,40.00,5,2,12,0.02
2013-6-10,76,61,45,58,52,44,100,75,41,0.00,40.00,3,1,6,0.00
2013-6-11,62,57,54,58,55,54,99,94,85,0.00,40.00,2,1,8,0.69
2013-6-12,63,57,52,57,54,52,100,91,74,0.00,40.00,3,2,11,0.14
2013-6-13,74,59,47,60,52,47,100,81,44,0.00,40.00,4,1,11,0.01
2013-6-14,79,64,51,58,51,44,99,69,32,0.00,40.00,4,2,10,0.01
2013-6-15,74,59,40,51,42,38,97,61,28,0.00,40.00,6,2,15,0.00
2013-6-16,74,56,40,60,50,39,99,82,44,0.00,40.00,4,1,11,0.50
2013-6-17,74,62,51,62,56,51,99,83,52,0.00,40.00,6,2,14,0.26
2013-6-18,72,58,47,55,48,43,98,73,42,0.00,40.00,3,2,9,0.02
2013-6-19,75,56,42,52,43,40,98,69,30,0.00,40.00,4,2,10,0.02
2013-6-20,77,55,38,52,42,37,98,71,26,0.00,40.00,4,2,12,0.02
2013-6-22,75,69,63,67,63,57,98,82,54,0.00,40.00,2,1,5,0.10
2013-6-23,82,69,62,71,66,62,100,90,67,0.00,40.00,3,1,8,0.36
2013-6-24,88,73,62,73,66,62,100,83,47,0.00,40.00,6,2,11,0.10
2013-6-25,87,71,60,70,65,59,100,85,55,0.00,40.00,3,1,12,1.88
2013-6-26,77,68,64,71,66,63,100,94,74,0.00,40.00,3,1,7,0.38
2013-6-27,85,71,63,70,66,62,100,86,49,0.00,40.00,3,1,9,0.25
2013-6-28,75,65,59,67,63,58,99,92,75,0.00,40.00,3,1,8,0.84
2013-6-29,83,69,62,68,64,60,99,85,52,0.00,40.00,5,1,13,0.43
2013-6-30,84,72,63,68,64,62,100,79,52,0.00,40.00,3,1,11,0.23
2013-7-1,77,69,64,69,66,62,100,90,69,0.00,40.00,2,1,5,0.25
2013-7-2,69,64,62,64,62,61,99,95,82,0.00,40.00,2,1,7,1.13
2013-7-3,84,70,61,74,66,60,99,91,67,0.00,40.00,3,1,8,0.52
2013-7-4,89,74,67,74,70,67,100,88,54,0.00,40.00,4,1,10,0.27
2013-7-5,89,75,65,75,69,65,100,84,53,0.00,40.00,4,1,14,0.14
2013-7-6,85,72,63,76,67,60,99,84,46,0.00,40.00,6,2,14,0.05
2013-7-7,84,70,59,69,64,58,97,81,53,0.00,40.00,5,2,12,0.01
2013-7-8,82,70,66,72,68,65,98,93,71,0.00,40.00,3,1,6,0.88
2013-7-9,85,72,66,72,68,64,99,88,56,0.00,40.00,3,1,11,0.58
2013-7-10,79,69,66,72,64,-100,99,90,67,0.00,40.00,4,1,8,0.87
2013-7-11,80,69,58,71,65,57,99,88,55,0.00,40.00,2,1,11,0.46
2013-7-12,87,67,53,63,56,52,98,73,32,0.00,40.00,4,1,8,0.02
2013-7-13,85,68,53,69,60,52,97,78,41,0.00,40.00,3,1,8,0.00
2013-7-14,89,74,62,72,66,61,96,79,47,0.00,40.00,4,1,10,0.00
2013-7-15,92,74,61,73,65,60,98,77,40,0.00,40.00,4,1,13,0.00
2013-7-16,91,83,66,67,65,62,92,58,42,0.00,40.00,3,1,11,0.00
2013-7-17,93,74,59,72,65,58,97,78,43,0.00,40.00,6,2,14,0.27
2013-7-18,88,78,68,74,69,66,98,77,53,0.00,40.00,5,2,11,0.29
2013-7-19,92,78,67,75,69,65,98,77,48,0.00,40.00,9,3,21,0.10
2013-7-20,84,70,61,72,64,-100,98,84,58,0.00,40.00,5,2,17,0.27
2013-7-21,82,67,56,59,56,52,95,71,42,0.00,40.00,3,1,7,0.11
2013-7-22,81,65,51,65,57,50,96,78,54,0.00,40.00,3,1,7,0.00
2013-7-23,78,66,62,72,64,61,97,93,76,0.00,40.00,2,1,5,0.31
2013-7-24,71,64,54,68,58,47,98,83,55,0.00,40.00,4,2,12,0.50
2013-7-25,77,62,45,60,51,43,96,71,45,0.00,40.00,4,1,8,0.01
2013-7-26,75,65,57,62,58,55,94,79,61,0.00,40.00,2,1,6,0.00
2013-7-27,85,71,59,65,60,53,95,72,35,0.00,40.00,5,2,9,0.00
2013-7-28,83,68,53,66,60,52,96,78,45,0.00,40.00,3,1,8,0.01
2013-7-29,82,71,60,67,63,56,97,80,47,0.00,40.00,5,2,12,0.17
2013-7-30,78,66,56,63,55,51,96,72,43,0.00,40.00,6,2,11,0.01
2013-7-31,81,60,48,63,48,-100,96,75,40,0.00,40.00,3,1,7,0.00
2013-8-1,82,62,49,63,56,48,97,83,38,0.00,40.00,4,1,10,0.31
2013-8-2,80,68,59,68,60,49,97,78,39,0.00,40.00,6,2,15,0.52
2013-8-3,73,63,54,62,56,51,97,79,51,0.00,40.00,6,2,17,0.08
2013-8-4,72,60,52,60,55,50,97,83,54,0.00,40.00,5,2,16,0.05
2013-8-5,73,58,47,53,48,38,97,74,30,0.00,40.00,5,2,13,0.12
2013-8-6,79,59,41,54,48,40,96,71,36,0.00,40.00,5,2,9,0.00
2013-8-7,82,64,46,59,52,45,96,70,35,0.00,40.00,5,2,15,0.00
2013-8-8,80,69,63,71,63,55,96,82,59,0.00,40.00,3,1,7,0.03
2013-8-9,75,68,64,72,67,63,97,95,90,0.00,40.00,2,1,5,0.62
2013-8-10,75,66,50,64,53,45,98,69,40,0.00,40.00,8,3,19,0.12
2013-8-11,77,61,44,56,50,43,96,72,37,0.00,40.00,6,2,12,0.00
2013-8-12,79,63,49,59,53,47,97,75,34,0.00,40.00,6,2,12,0.00
2013-8-13,71,60,52,67,57,-100,96,92,78,0.00,40.00,2,0,4,0.21
2013-8-14,72,61,53,59,52,-100,97,79,52,0.00,40.00,6,2,20,0.05
2013-8-15,74,55,42,54,42,-100,96,73,42,0.00,40.00,6,2,11,0.02
2013-8-16,78,59,43,59,48,-100,96,74,41,0.00,40.00,4,1,11,0.00
2013-8-17,80,63,50,61,54,48,97,76,37,0.00,40.00,3,1,9,0.00
2013-8-18,78,59,45,59,50,-100,97,77,41,0.00,40.00,3,1,7,0.00
2013-8-19,84,62,48,61,50,-100,96,76,44,0.00,40.00,6,2,15,0.00
2013-8-20,84,67,52,63,57,51,96,75,35,0.00,40.00,6,2,12,0.00
2013-8-21,87,70,54,67,59,53,96,74,37,0.00,40.00,5,2,12,0.00
2013-8-22,86,71,56,66,62,55,96,75,45,0.00,40.00,5,2,10,0.00
2013-8-23,77,65,47,64,53,44,94,69,34,0.00,40.00,4,2,12,0.01
2013-8-24,82,57,42,55,46,40,96,74,30,0.00,40.00,2,1,9,0.00
2013-8-25,80,59,43,58,48,-100,96,74,37,0.00,40.00,4,2,10,0.00
2013-8-26,69,63,57,66,60,54,97,92,85,0.00,40.00,2,1,7,0.05
2013-8-27,86,71,62,69,64,60,96,80,41,0.00,40.00,4,1,7,0.01
2013-8-28,90,76,64,67,64,62,96,71,42,0.00,40.00,3,2,7,0.37
2013-8-29,78,66,58,67,62,57,97,88,59,0.00,40.00,3,1,7,0.37
2013-8-30,81,69,62,68,63,60,95,84,61,0.00,40.00,3,1,7,0.24
2013-8-31,80,69,63,71,66,62,97,90,65,0.00,40.00,4,1,9,0.69
2013-9-1,87,72,65,68,63,-100,97,79,43,0.00,40.00,2,1,6,0.01
2013-9-2,76,69,65,70,66,64,97,90,73,0.00,40.00,3,1,6,0.54
2013-9-3,74,65,60,67,62,59,97,89,65,0.00,40.00,2,1,10,0.37
2013-9-4,74,64,57,61,56,50,96,79,46,0.00,40.00,5,2,14,0.09
2013-9-5,65,56,40,57,46,36,96,73,36,0.00,40.00,5,2,15,0.10
2013-9-6,69,50,35,48,39,33,96,73,33,0.00,40.00,6,2,12,0.00
2013-9-7,72,55,41,57,48,40,96,78,39,0.00,40.00,4,1,12,0.00
2013-9-8,62,53,38,54,45,-100,96,78,45,0.00,40.00,5,2,18,0.18
2013-9-9,67,48,33,49,39,32,96,77,35,0.00,40.00,5,2,14,0.04
2013-9-10,64,53,41,60,51,40,96,94,84,0.00,40.00,1,1,3,0.06
2013-9-11,91,71,59,73,66,58,97,85,51,0.00,40.00,5,2,16,0.61
2013-9-12,76,68,63,72,66,62,97,94,82,0.00,40.00,3,1,7,1.06
2013-9-13,63,60,54,62,58,53,98,96,93,0.00,40.00,2,1,6,1.56
2013-9-14,57,53,50,53,51,48,97,92,81,0.00,40.00,2,1,6,0.39
2013-9-15,68,51,42,52,45,-100,97,85,51,0.00,40.00,5,1,10,0.03
2013-9-16,57,50,38,53,45,32,97,82,53,0.00,40.00,4,2,14,0.07
2013-9-17,66,47,33,43,37,32,96,75,36,0.00,40.00,3,1,9,0.01
2013-9-18,43,37,36,41,35,35,96,95,94,0.00,40.00,2,1,3,0.00
2013-9-19,78,54,40,53,45,39,97,77,28,0.00,40.00,3,1,7,0.00
2013-9-20,81,58,43,56,49,42,97,78,38,0.00,40.00,3,1,10,0.00
2013-9-21,76,60,41,60,49,40,96,72,32,0.00,40.00,6,2,16,0.00
2013-9-22,69,58,47,61,51,-100,96,80,64,0.00,40.00,6,2,15,0.68
2013-9-23,49,46,44,41,38,36,87,74,66,0.00,40.00,4,2,12,0.01
2013-9-24,54,48,42,44,39,36,92,71,51,0.00,40.00,4,2,11,0.00
2013-9-25,55,47,38,46,43,36,95,86,71,0.00,40.00,2,1,6,0.00
2013-9-26,65,52,41,49,46,39,96,80,52,0.00,40.00,3,1,8,0.00
2013-9-27,71,57,46,53,49,44,93,76,44,0.00,40.00,3,1,8,0.00
2013-9-28,76,54,42,55,47,41,96,82,41,0.00,40.00,3,1,6,0.00
2013-9-29,76,54,42,55,45,-100,96,79,42,0.00,40.00,4,1,8,0.00
2013-9-30,74,53,42,53,45,41,96,80,37,0.00,40.00,3,1,8,0.00
2013-10-1,55,52,44,51,49,42,93,91,87,0.00,40.00,0,0,2,0.00
2013-10-2,76,57,45,57,49,43,96,79,42,0.00,40.00,5,2,17,0.00
2013-10-3,73,52,36,50,42,35,95,75,35,0.00,40.00,5,1,10,0.00
2013-10-4,69,51,36,51,43,35,96,77,43,0.00,40.00,2,1,4,0.00
2013-10-5,65,54,48,49,46,40,88,74,52,0.00,40.00,3,1,6,0.00
2013-10-6,56,49,41,47,42,38,95,79,55,0.00,40.00,2,1,5,0.10
2013-10-7,69,58,47,61,54,46,96,89,68,0.00,40.00,5,2,20,0.46
2013-10-8,59,48,33,52,39,31,96,74,39,0.00,40.00,5,2,16,0.45
2013-10-9,64,42,30,43,34,28,96,78,32,0.00,40.00,3,1,7,0.00
2013-10-10,63,45,31,48,39,29,95,82,47,0.00,40.00,1,0,4,0.00
2013-10-11,71,47,31,49,39,30,95,79,33,0.00,40.00,3,1,5,0.00
2013-10-12,72,50,33,52,43,32,95,79,45,0.00,40.00,3,1,6,0.00
2013-10-13,63,52,39,51,46,-100,94,82,61,0.00,40.00,3,1,6,0.00
2013-10-14,56,48,39,52,46,37,97,92,75,0.00,40.00,3,1,6,0.12
2013-10-15,67,56,50,56,52,48,97,88,58,0.00,40.00,3,1,7,0.06
2013-10-16,70,53,43,53,46,42,96,80,40,0.00,40.00,4,1,9,0.01
2013-10-17,65,52,42,55,47,40,96,84,49,0.00,40.00,6,1,11,0.05
2013-10-18,61,51,42,54,46,39,97,84,53,0.00,40.00,5,2,15,0.48
2013-10-19,62,48,34,46,39,32,95,76,36,0.00,40.00,4,2,14,0.02
2013-10-20,55,48,37,47,35,-100,96,68,32,0.00,40.00,10,4,22,0.10
2013-10-21,59,42,28,41,34,27,94,77,44,0.00,40.00,3,2,8,0.01
2013-10-22,56,44,32,50,42,31,95,90,72,0.00,40.00,5,1,20,0.23
2013-10-23,51,36,28,40,30,27,95,83,45,0.00,40.00,4,1,10,0.14
2013-10-24,44,36,28,34,29,24,93,77,45,0.00,40.00,7,3,17,0.01
2013-10-25,43,38,34,31,27,22,80,65,49,0.00,40.00,6,3,14,0.01
2013-10-26,44,35,26,34,27,22,90,73,46,0.00,40.00,6,2,16,0.00
2013-10-27,45,39,30,37,30,-100,88,74,51,0.00,40.00,6,2,20,0.01
2013-10-28,45,34,25,37,26,-100,92,77,50,0.00,40.00,6,2,16,0.02
2013-10-29,44,27,17,23,18,14,89,72,35,0.00,40.00,3,1,7,0.01
2013-10-30,41,30,20,28,23,16,88,76,54,0.00,40.00,3,1,9,0.00
2013-10-31,42,34,28,41,31,25,96,88,72,0.00,40.00,2,0,5,0.25
2013-11-1,65,58,44,61,50,37,97,76,41,0.00,40.00,9,4,25,1.41
2013-11-2,55,47,37,43,40,32,93,78,58,0.00,40.00,6,2,10,0.03
2013-11-3,37,30,20,32,18,-100,85,63,40,0.00,40.00,3,2,9,0.03
2013-11-4,38,24,14,19,14,10,87,70,34,0.00,40.00,4,1,9,0.00
2013-11-5,46,29,17,25,19,14,88,72,34,0.00,40.00,4,1,11,0.00
2013-11-6,56,39,26,38,30,23,89,73,45,0.00,40.00,4,1,10,0.00
2013-11-7,51,43,35,50,38,22,97,82,58,0.00,40.00,5,2,17,0.38
2013-11-8,39,34,28,27,24,20,90,67,52,0.00,40.00,7,3,19,0.02
2013-11-9,37,33,29,26,18,-100,83,58,47,0.00,40.00,6,3,16,0.00
2013-11-10,42,36,31,38,33,26,95,90,83,0.00,40.00,4,1,12,0.11
2013-11-11,40,36,33,33,27,23,86,71,55,0.00,40.00,6,3,18,0.04
2013-11-12,40,27,24,30,17,12,86,65,53,0.00,40.00,6,4,16,0.00
2013-11-13,28,23,15,14,10,6,76,58,41,0.00,40.00,6,3,13,0.00
2013-11-14,41,29,22,27,21,14,89,72,53,0.00,40.00,4,1,9,0.00
2013-11-15,49,30,22,30,22,17,91,74,28,0.00,40.00,3,1,9,0.00
2013-11-16,55,34,26,29,22,-100,85,68,24,0.00,40.00,3,1,7,0.00
2013-11-17,48,35,22,45,31,20,96,86,73,0.00,40.00,3,1,10,0.07
2013-11-18,56,51,39,54,43,27,97,77,43,0.00,40.00,8,3,19,0.47
2013-11-19,42,31,28,32,18,14,79,59,50,0.00,40.00,8,5,27,0.01
2013-11-20,36,27,17,14,11,7,82,53,32,0.00,40.00,3,2,12,0.00
2013-11-21,40,25,13,20,14,9,86,68,30,0.00,40.00,3,1,9,0.00
2013-11-22,34,29,22,31,26,17,96,85,73,0.00,40.00,2,0,4,0.10
2013-11-23,36,29,20,35,20,-100,96,72,50,0.00,40.00,7,3,20,0.07
2013-11-24,20,16,12,13,4,-3,78,57,42,0.00,40.00,7,4,26,0.00
2013-11-25,23,15,8,12,0,-7,67,53,27,0.00,40.00,6,2,12,0.00
2013-11-26,34,28,21,27,20,11,93,75,63,0.00,40.00,4,1,10,0.03
2013-11-27,40,34,29,39,32,27,97,96,93,0.00,40.00,2,1,8,1.20
2013-11-28,31,20,8,30,11,4,96,70,50,0.00,40.00,8,4,19,0.07
2013-11-29,25,11,1,9,3,-4,82,72,46,0.00,40.00,2,1,7,0.00
2013-11-30,25,10,-4,16,1,-100,79,69,45,0.00,40.00,3,1,7,0.00
2013-12-1,37,28,20,29,23,16,94,82,64,0.00,40.00,2,0,4,0.07
2013-12-2,36,30,24,33,28,22,96,92,85,0.00,40.00,2,0,4,0.07
2013-12-3,35,32,30,33,31,29,96,95,89,0.00,40.00,2,1,5,0.03
2013-12-4,38,30,20,30,23,18,96,75,60,0.00,40.00,4,1,11,0.01
2013-12-5,35,27,20,32,24,17,94,89,80,0.00,40.00,2,1,4,0.00
2013-12-6,36,34,31,35,29,20,97,85,62,0.00,40.00,4,2,9,0.35
2013-12-7,32,26,19,25,11,-100,76,54,40,0.00,40.00,7,3,18,0.01
2013-12-8,26,17,10,10,7,4,84,65,39,0.00,40.00,4,2,14,0.00
2013-12-9,35,26,18,28,18,9,88,73,63,0.00,40.00,3,1,10,0.00
2013-12-10,32,26,19,29,14,9,92,63,46,0.00,40.00,5,2,12,0.00
2013-12-11,24,17,8,15,10,3,83,72,49,0.00,40.00,7,3,17,0.00
2013-12-12,14,7,3,3,-4,-8,77,60,37,0.00,40.00,7,2,11,0.00
2013-12-13,16,9,-4,10,-1,-12,82,63,41,0.00,40.00,7,3,19,0.00
2013-12-14,9,0,-11,3,-12,-100,79,60,39,0.00,40.00,2,1,6,0.00
2013-12-15,20,17,8,17,12,3,89,81,75,0.00,40.00,5,2,14,0.00
2013-12-16,16,6,-14,12,-4,-21,86,67,44,0.00,40.00,7,2,15,0.00
2013-12-17,8,-7,-25,3,-15,-34,80,65,43,0.00,40.00,3,1,6,0.00
2013-12-18,26,16,6,19,10,1,88,78,61,0.00,40.00,3,1,7,0.00
2013-12-19,31,25,19,25,21,16,90,83,67,0.00,40.00,2,1,6,0.00
2013-12-20,33,30,27,31,28,24,96,93,90,0.00,40.00,2,0,4,0.03
2013-12-21,39,34,32,38,32,-100,97,96,96,0.00,40.00,2,1,5,0.84
2013-12-22,35,33,31,34,32,29,97,96,93,0.00,40.00,3,1,9,1.45
2013-12-23,33,32,30,32,31,23,97,95,75,0.00,40.00,4,1,15,0.31
2013-12-24,30,20,8,23,10,-2,76,66,49,0.00,40.00,5,2,15,0.01
2013-12-25,14,6,0,2,-4,-9,81,64,47,0.00,40.00,5,2,13,0.01
2013-12-26,24,15,6,20,11,1,91,83,78,0.00,40.00,1,0,4,0.00
2013-12-27,29,22,14,22,18,11,90,83,61,0.00,40.00,3,1,13,0.00
2013-12-28,31,24,11,30,20,-100,95,87,79,0.00,40.00,2,1,4,0.00
2013-12-29,35,31,24,31,29,23,97,93,83,0.00,40.00,2,0,4,0.18
2013-12-30,32,19,-5,31,13,-11,97,80,57,0.00,40.00,7,2,17,0.18
2013-12-31,10,3,-5,3,-4,-11,82,71,42,0.00,40.00,3,1,7,0.01
2014-1-1,15,6,-3,5,-3,-13,82,68,49,0.00,40.00,6,2,14,0.00
2014-1-2,5,0,-5,-3,-9,-15,73,65,56,0.00,40.00,2,1,6,0.00